Year,Month,Day,Hour,Minute,Value (Times are PST for temperature in C)
2016,12,07,00,01,0.60
2016,12,07,00,02,0.50
2016,12,07,00,03,0.50
2016,12,07,00,04,0.50
2016,12,07,00,06,0.50
2016,12,07,00,07,0.50
2016,12,07,00,09,0.50
2016,12,07,00,11,0.40
2016,12,07,00,12,0.40
2016,12,07,00,13,0.40
2016,12,07,00,14,0.40
2016,12,07,00,15,0.40
2016,12,07,00,16,0.40
2016,12,07,00,17,0.40
2016,12,07,00,18,0.40
2016,12,07,00,19,0.40
2016,12,07,00,20,0.40
2016,12,07,00,24,0.40
2016,12,07,00,25,0.30
2016,12,07,00,26,0.30
2016,12,07,00,27,0.30
2016,12,07,00,28,0.30
2016,12,07,00,29,0.30
2016,12,07,00,30,0.30
2016,12,07,00,31,0.30
2016,12,07,00,32,0.20
2016,12,07,00,33,0.20
2016,12,07,00,34,0.20
2016,12,07,00,35,0.20
2016,12,07,00,36,0.20
2016,12,07,00,37,0.10
2016,12,07,00,38,0.20
2016,12,07,00,39,0.10
2016,12,07,00,40,0.10
2016,12,07,00,41,0.10
2016,12,07,00,42,0.10
2016,12,07,00,43,0.10
2016,12,07,00,44,0.10
2016,12,07,00,46,0.10
2016,12,07,00,48,0.10
2016,12,07,00,49,0.10
2016,12,07,00,51,0.10
2016,12,07,00,52,-0.10
2016,12,07,00,53,-0.10
2016,12,07,00,54,-0.10
2016,12,07,01,24,-0.20
2016,12,07,01,25,-0.20
2016,12,07,01,26,-0.20
2016,12,07,01,27,-0.30
2016,12,07,01,28,-0.30
2016,12,07,01,29,-0.30
2016,12,07,01,30,-0.30
2016,12,07,01,31,-0.30
2016,12,07,01,32,-0.30
2016,12,07,01,33,-0.30
2016,12,07,01,34,-0.30
2016,12,07,01,35,-0.30
2016,12,07,01,36,-0.30
2016,12,07,01,37,-0.20
2016,12,07,01,38,-0.10
2016,12,07,01,39,-0.10
2016,12,07,01,40,-0.10
2016,12,07,01,41,-0.10
2016,12,07,01,42,-0.10
2016,12,07,01,43,-0.10
2016,12,07,01,44,-0.10
2016,12,07,01,45,-0.10
2016,12,07,01,46,-0.10
2016,12,07,01,47,-0.10
2016,12,07,01,48,-0.20
2016,12,07,01,49,-0.20
2016,12,07,01,50,-0.10
2016,12,07,01,52,-0.10
2016,12,07,01,53,-0.10
2016,12,07,01,54,-0.10
2016,12,07,01,56,-0.20
2016,12,07,01,57,-0.20
2016,12,07,01,58,-0.10
2016,12,07,01,59,-0.10
2016,12,07,02,01,-0.10
2016,12,07,02,02,-0.10
2016,12,07,02,03,-0.10
2016,12,07,02,04,-0.10
2016,12,07,02,06,-0.10
2016,12,07,02,07,-0.10
2016,12,07,02,08,-0.10
2016,12,07,02,09,-0.10
2016,12,07,02,11,-0.10
2016,12,07,02,12,-0.10
2016,12,07,02,13,-0.10
2016,12,07,02,14,-0.10
2016,12,07,02,16,-0.10
2016,12,07,02,17,-0.10
2016,12,07,02,18,-0.10
2016,12,07,02,19,-0.10
2016,12,07,02,21,-0.10
2016,12,07,02,22,-0.10
2016,12,07,02,23,-0.10
2016,12,07,02,24,-0.10
2016,12,07,02,26,-0.10
2016,12,07,02,27,-0.10
2016,12,07,02,28,-0.10
2016,12,07,02,29,-0.10
2016,12,07,02,31,-0.10
2016,12,07,02,32,-0.10
2016,12,07,02,33,-0.10
2016,12,07,02,34,-0.10
2016,12,07,02,36,-0.10
2016,12,07,02,37,-0.10
2016,12,07,02,38,-0.10
2016,12,07,02,39,-0.10
2016,12,07,02,41,-0.10
2016,12,07,02,42,-0.10
2016,12,07,02,43,-0.10
2016,12,07,02,44,-0.10
2016,12,07,02,46,-0.10
2016,12,07,02,47,-0.10
2016,12,07,02,48,-0.10
2016,12,07,02,49,-0.10
2016,12,07,02,51,-0.10
2016,12,07,02,52,-0.10
2016,12,07,02,53,-0.10
2016,12,07,02,54,-0.10
2016,12,07,02,56,-0.10
2016,12,07,02,57,-0.10
2016,12,07,02,58,-0.10
2016,12,07,02,59,-0.10
2016,12,07,03,01,-0.10
2016,12,07,03,02,-0.10
2016,12,07,03,03,-0.10
2016,12,07,03,04,-0.10
2016,12,07,03,06,-0.10
2016,12,07,03,07,-0.10
2016,12,07,03,08,-0.10
2016,12,07,03,09,-0.10
2016,12,07,03,10,-0.10
2016,12,07,03,11,-0.10
2016,12,07,03,12,-0.10
2016,12,07,03,13,-0.10
2016,12,07,03,14,-0.10
2016,12,07,03,15,-0.10
2016,12,07,03,16,-0.10
2016,12,07,03,17,-0.10
2016,12,07,03,18,-0.10
2016,12,07,03,19,-0.10
2016,12,07,03,20,-0.10
2016,12,07,03,21,-0.10
2016,12,07,03,22,-0.10
2016,12,07,03,23,-0.10
2016,12,07,03,24,-0.10
2016,12,07,03,25,-0.10
2016,12,07,03,26,-0.10
2016,12,07,03,27,-0.10
2016,12,07,03,28,-0.10
2016,12,07,03,29,-0.10
2016,12,07,03,30,-0.10
2016,12,07,03,31,-0.10
2016,12,07,03,32,-0.10
2016,12,07,03,33,-0.20
2016,12,07,03,34,-0.10
2016,12,07,03,35,-0.10
2016,12,07,03,36,-0.20
2016,12,07,03,37,-0.20
2016,12,07,03,38,-0.20
2016,12,07,03,39,-0.20
2016,12,07,03,40,-0.20
2016,12,07,03,41,-0.20
2016,12,07,03,42,-0.20
2016,12,07,03,43,-0.20
2016,12,07,03,44,-0.20
2016,12,07,03,45,-0.20
2016,12,07,03,46,-0.30
2016,12,07,03,47,-0.30
2016,12,07,03,48,-0.30
2016,12,07,03,49,-0.20
2016,12,07,03,50,-0.20
2016,12,07,03,51,-0.20
2016,12,07,03,52,-0.10
2016,12,07,03,53,-0.10
2016,12,07,03,54,-0.10
2016,12,07,03,55,-0.10
2016,12,07,03,56,-0.10
2016,12,07,03,57,-0.10
2016,12,07,03,58,-0.20
2016,12,07,03,59,-0.10
2016,12,07,04,00,-0.10
2016,12,07,04,01,-0.20
2016,12,07,04,02,-0.20
2016,12,07,04,03,-0.20
2016,12,07,04,04,-0.20
2016,12,07,04,05,-0.20
2016,12,07,04,06,-0.20
2016,12,07,04,07,-0.20
2016,12,07,04,08,-0.20
2016,12,07,04,09,-0.20
2016,12,07,04,10,-0.30
2016,12,07,04,11,-0.30
2016,12,07,04,12,-0.20
2016,12,07,04,13,-0.30
2016,12,07,04,14,-0.30
2016,12,07,04,15,-0.30
2016,12,07,04,16,-0.30
2016,12,07,04,17,-0.30
2016,12,07,04,18,-0.30
2016,12,07,04,19,-0.30
2016,12,07,04,20,-0.30
2016,12,07,04,22,-0.40
2016,12,07,04,23,-0.40
2016,12,07,05,23,-0.80
2016,12,07,05,24,-0.80
2016,12,07,05,25,-0.90
2016,12,07,05,26,-0.90
2016,12,07,05,27,-0.80
2016,12,07,05,28,-0.80
2016,12,07,05,29,-0.80
2016,12,07,05,30,-0.70
2016,12,07,05,31,-0.70
2016,12,07,05,32,-0.70
2016,12,07,05,33,-0.70
2016,12,07,05,34,-0.70
2016,12,07,05,35,-0.60
2016,12,07,05,36,-0.70
2016,12,07,05,37,-0.60
2016,12,07,05,38,-0.70
2016,12,07,05,39,-0.70
2016,12,07,05,40,-0.70
2016,12,07,05,41,-0.70
2016,12,07,05,42,-0.70
2016,12,07,05,43,-0.70
2016,12,07,05,44,-0.70
2016,12,07,05,45,-0.70
2016,12,07,05,47,-0.70
2016,12,07,05,48,-0.70
2016,12,07,05,49,-0.70
2016,12,07,05,51,-0.70
2016,12,07,05,52,-0.70
2016,12,07,05,53,-0.80
2016,12,07,05,54,-0.80
2016,12,07,05,56,-0.80
2016,12,07,05,57,-0.80
2016,12,07,05,58,-0.80
2016,12,07,05,59,-0.80
2016,12,07,06,01,-0.80
2016,12,07,06,02,-0.90
2016,12,07,06,03,-0.90
2016,12,07,06,04,-0.90
2016,12,07,06,06,-0.90
2016,12,07,06,07,-0.90
2016,12,07,06,08,-0.80
2016,12,07,06,09,-0.80
2016,12,07,06,11,-0.80
2016,12,07,06,12,-0.80
2016,12,07,06,13,-0.90
2016,12,07,06,14,-0.90
2016,12,07,06,16,-0.90
2016,12,07,06,17,-0.90
2016,12,07,06,18,-0.90
2016,12,07,06,19,-0.90
2016,12,07,06,21,-0.90
2016,12,07,06,22,-0.90
2016,12,07,06,23,-0.90
2016,12,07,06,24,-0.90
2016,12,07,06,26,-0.90
2016,12,07,06,27,-0.90
2016,12,07,06,28,-0.90
2016,12,07,06,29,-0.80
2016,12,07,06,31,-0.90
2016,12,07,06,32,-0.90
2016,12,07,06,33,-0.90
2016,12,07,06,34,-0.90
2016,12,07,06,36,-0.90
2016,12,07,06,37,-0.90
2016,12,07,06,38,-0.90
2016,12,07,06,39,-0.90
2016,12,07,06,41,-1.10
2016,12,07,06,42,-1.10
2016,12,07,06,43,-1.10
2016,12,07,06,44,-1.10
2016,12,07,06,46,-1.10
2016,12,07,06,47,-1.10
2016,12,07,06,48,-1.10
2016,12,07,06,49,-1.10
2016,12,07,06,51,-1.20
2016,12,07,06,52,-1.20
2016,12,07,06,53,-1.20
2016,12,07,06,54,-1.30
2016,12,07,06,56,-1.30
2016,12,07,06,57,-1.40
2016,12,07,06,58,-1.40
2016,12,07,06,59,-1.40
2016,12,07,07,01,-1.30
2016,12,07,07,02,-1.40
2016,12,07,07,03,-1.40
2016,12,07,07,04,-1.30
2016,12,07,07,06,-1.40
2016,12,07,07,07,-1.40
2016,12,07,07,08,-1.40
2016,12,07,08,23,-1.10
2016,12,07,08,24,-1.10
2016,12,07,08,25,-1.10
2016,12,07,08,26,-1.10
2016,12,07,08,27,-1.10
2016,12,07,08,28,-1.10
2016,12,07,08,29,-1.10
2016,12,07,08,30,-1.10
2016,12,07,08,31,-1.10
2016,12,07,08,32,-1.10
2016,12,07,08,33,-0.90
2016,12,07,08,34,-0.90
2016,12,07,08,35,-0.90
2016,12,07,08,36,-0.90
2016,12,07,08,37,-0.90
2016,12,07,08,38,-0.90
2016,12,07,08,39,-0.90
2016,12,07,08,40,-0.80
2016,12,07,08,41,-0.80
2016,12,07,08,42,-0.80
2016,12,07,08,44,-0.80
2016,12,07,08,46,-0.70
2016,12,07,08,47,-0.70
2016,12,07,08,48,-0.70
2016,12,07,08,49,-0.70
2016,12,07,08,51,-0.60
2016,12,07,08,52,-0.60
2016,12,07,08,53,-0.60
2016,12,07,08,54,-0.60
2016,12,07,08,56,-0.60
2016,12,07,08,57,-0.60
2016,12,07,08,58,-0.60
2016,12,07,08,59,-0.60
2016,12,07,09,01,-0.60
2016,12,07,09,02,-0.60
2016,12,07,09,03,-0.60
2016,12,07,09,04,-0.60
2016,12,07,09,06,-0.60
2016,12,07,09,07,-0.60
2016,12,07,09,08,-0.60
2016,12,07,09,09,-0.40
2016,12,07,09,11,-0.40
2016,12,07,09,12,-0.40
2016,12,07,09,13,-0.40
2016,12,07,09,14,-0.40
2016,12,07,09,16,-0.40
2016,12,07,09,17,-0.40
2016,12,07,09,18,-0.40
2016,12,07,09,19,-0.40
2016,12,07,09,21,-0.30
2016,12,07,09,22,-0.30
2016,12,07,09,23,-0.30
2016,12,07,09,24,-0.30
2016,12,07,09,26,-0.30
2016,12,07,09,27,-0.20
2016,12,07,09,28,-0.20
2016,12,07,09,29,-0.20
2016,12,07,09,31,-0.10
2016,12,07,09,32,-0.10
2016,12,07,09,33,-0.10
2016,12,07,09,34,-0.10
2016,12,07,09,36,-0.10
2016,12,07,09,37,-0.10
2016,12,07,09,38,-0.10
2016,12,07,09,39,-0.10
2016,12,07,09,41,-0.10
2016,12,07,09,42,-0.10
2016,12,07,09,43,-0.10
2016,12,07,09,44,-0.10
2016,12,07,09,46,0.10
2016,12,07,09,47,0.10
2016,12,07,09,48,0.10
2016,12,07,09,49,0.10
2016,12,07,09,51,0.10
2016,12,07,09,52,0.10
2016,12,07,09,53,0.10
2016,12,07,09,54,0.10
2016,12,07,09,55,0.20
2016,12,07,09,56,0.20
2016,12,07,09,57,0.20
2016,12,07,09,58,0.30
2016,12,07,09,59,0.30
2016,12,07,10,00,0.30
2016,12,07,10,01,0.40
2016,12,07,10,02,0.40
2016,12,07,10,03,0.40
2016,12,07,10,04,0.40
2016,12,07,10,06,0.40
2016,12,07,10,07,0.50
2016,12,07,10,08,0.40
2016,12,07,10,09,0.40
2016,12,07,10,10,0.40
2016,12,07,10,11,0.40
2016,12,07,10,12,0.40
2016,12,07,10,13,0.40
2016,12,07,10,23,0.50
2016,12,07,10,24,0.50
2016,12,07,10,25,0.60
2016,12,07,10,26,0.60
2016,12,07,10,27,0.60
2016,12,07,10,28,0.60
2016,12,07,10,29,0.60
2016,12,07,10,30,0.60
2016,12,07,10,31,0.70
2016,12,07,10,32,0.70
2016,12,07,10,33,0.70
2016,12,07,10,34,0.70
2016,12,07,10,35,0.70
2016,12,07,10,36,0.70
2016,12,07,10,37,0.70
2016,12,07,10,38,0.70
2016,12,07,10,39,0.70
2016,12,07,10,40,0.60
2016,12,07,10,41,0.60
2016,12,07,10,42,0.60
2016,12,07,10,44,0.60
2016,12,07,10,46,0.60
2016,12,07,10,47,0.60
2016,12,07,10,48,0.60
2016,12,07,10,49,0.60
2016,12,07,10,51,0.60
2016,12,07,10,52,0.60
2016,12,07,10,53,0.60
2016,12,07,10,54,0.60
2016,12,07,10,56,0.70
2016,12,07,10,57,0.70
2016,12,07,10,58,0.70
2016,12,07,10,59,0.70
2016,12,07,11,01,0.80
2016,12,07,11,02,0.80
2016,12,07,11,03,0.80
2016,12,07,11,04,0.80
2016,12,07,11,06,0.80
2016,12,07,11,07,0.80
2016,12,07,11,08,0.80
2016,12,07,11,09,0.80
2016,12,07,11,11,0.80
2016,12,07,11,12,0.80
2016,12,07,11,13,0.90
2016,12,07,11,14,0.90
2016,12,07,11,16,0.90
2016,12,07,11,17,0.90
2016,12,07,11,18,0.90
2016,12,07,11,19,0.90
2016,12,07,11,21,0.90
2016,12,07,11,22,1.00
2016,12,07,11,23,1.00
2016,12,07,11,24,1.00
2016,12,07,11,26,1.00
2016,12,07,11,27,1.00
2016,12,07,11,28,1.00
2016,12,07,11,29,1.00
2016,12,07,11,31,1.00
2016,12,07,11,32,1.00
2016,12,07,11,33,1.00
2016,12,07,11,34,1.00
2016,12,07,11,36,1.00
2016,12,07,11,37,1.10
2016,12,07,11,38,1.10
2016,12,07,11,39,1.10
2016,12,07,11,41,1.10
2016,12,07,11,42,1.10
2016,12,07,11,43,1.20
2016,12,07,11,44,1.20
2016,12,07,11,46,1.20
2016,12,07,11,47,1.20
2016,12,07,11,48,1.30
2016,12,07,11,49,1.30
2016,12,07,11,51,1.30
2016,12,07,11,52,1.30
2016,12,07,11,53,1.30
2016,12,07,11,54,1.30
2016,12,07,11,56,1.40
2016,12,07,11,57,1.40
2016,12,07,11,58,1.50
2016,12,07,11,59,1.50
2016,12,07,12,00,1.50
2016,12,07,12,01,1.50
2016,12,07,12,02,1.50
2016,12,07,12,03,1.60
2016,12,07,12,04,1.60
2016,12,07,12,06,1.60
2016,12,07,12,07,1.60
2016,12,07,12,08,1.60
2016,12,07,12,09,1.60
2016,12,07,12,10,1.60
2016,12,07,12,11,1.60
2016,12,07,12,12,1.60
2016,12,07,12,13,1.60
2016,12,07,12,14,1.70
2016,12,07,12,15,1.70
2016,12,07,12,16,1.70
2016,12,07,12,17,1.70
2016,12,07,12,18,1.70
2016,12,07,12,19,1.70
2016,12,07,12,20,1.60
2016,12,07,12,21,1.60
2016,12,07,12,22,1.60
2016,12,07,12,23,1.60
2016,12,07,12,24,1.60
2016,12,07,12,25,1.60
2016,12,07,12,26,1.60
2016,12,07,12,27,1.70
2016,12,07,12,28,1.70
2016,12,07,12,29,1.70
2016,12,07,12,30,1.70
2016,12,07,12,31,1.70
2016,12,07,12,32,1.70
2016,12,07,12,33,1.70
2016,12,07,12,34,1.70
2016,12,07,12,35,1.80
2016,12,07,12,36,1.80
2016,12,07,12,37,1.80
2016,12,07,12,38,1.80
2016,12,07,12,39,1.80
2016,12,07,12,40,1.80
2016,12,07,12,41,1.80
2016,12,07,12,42,1.80
2016,12,07,12,43,1.80
2016,12,07,12,44,1.90
2016,12,07,12,45,1.90
2016,12,07,12,46,1.90
2016,12,07,12,47,1.90
2016,12,07,12,48,1.90
2016,12,07,12,49,1.90
2016,12,07,12,50,1.90
2016,12,07,12,51,1.90
2016,12,07,12,52,1.90
2016,12,07,12,53,1.90
2016,12,07,12,54,1.90
2016,12,07,12,55,1.90
2016,12,07,12,56,1.90
2016,12,07,12,57,1.80
2016,12,07,12,58,1.80
2016,12,07,12,59,1.80
2016,12,07,13,00,1.80
2016,12,07,13,01,1.80
2016,12,07,13,02,1.80
2016,12,07,13,03,1.80
2016,12,07,13,04,1.80
2016,12,07,13,06,1.80
2016,12,07,13,08,1.80
2016,12,07,13,09,1.80
2016,12,07,13,11,1.80
2016,12,07,13,12,1.80
2016,12,07,13,13,1.80
2016,12,07,13,14,1.80
2016,12,07,13,16,1.80
2016,12,07,13,17,1.80
2016,12,07,13,18,1.80
2016,12,07,13,19,1.80
2016,12,07,13,21,1.80
2016,12,07,13,22,1.80
2016,12,07,13,23,1.80
2016,12,07,13,24,1.80
2016,12,07,13,26,1.90
2016,12,07,13,27,1.90
2016,12,07,13,28,1.90
2016,12,07,13,29,1.90
2016,12,07,13,31,1.90
2016,12,07,13,32,1.90
2016,12,07,13,33,1.90
2016,12,07,13,34,2.00
2016,12,07,13,36,2.00
2016,12,07,13,37,2.00
2016,12,07,13,38,2.00
2016,12,07,13,39,2.00
2016,12,07,13,41,2.00
2016,12,07,13,42,2.00
2016,12,07,13,43,2.00
2016,12,07,13,44,2.00
2016,12,07,13,46,2.00
2016,12,07,13,47,2.00
2016,12,07,13,48,2.00
2016,12,07,13,49,2.00
2016,12,07,13,51,2.00
2016,12,07,13,52,2.00
2016,12,07,13,53,2.00
2016,12,07,13,54,2.00
2016,12,07,13,56,2.00
2016,12,07,13,57,2.00
2016,12,07,13,58,2.10
2016,12,07,13,59,2.10
2016,12,07,14,01,2.00
2016,12,07,14,02,2.00
2016,12,07,14,03,2.00
2016,12,07,14,04,2.00
2016,12,07,14,06,2.00
2016,12,07,14,07,2.00
2016,12,07,14,08,2.00
2016,12,07,14,09,2.00
2016,12,07,14,11,2.00
2016,12,07,14,12,1.90
2016,12,07,14,13,2.00
2016,12,07,14,14,2.00
2016,12,07,14,15,2.00
2016,12,07,14,16,2.00
2016,12,07,14,17,2.00
2016,12,07,14,18,2.00
2016,12,07,14,19,2.00
2016,12,07,14,20,1.90
2016,12,07,14,21,1.90
2016,12,07,14,22,1.90
2016,12,07,14,23,1.90
2016,12,07,14,24,1.90
2016,12,07,14,25,1.90
2016,12,07,14,26,1.90
2016,12,07,14,27,1.80
2016,12,07,14,28,1.80
2016,12,07,14,29,1.80
2016,12,07,14,30,1.80
2016,12,07,14,31,1.80
2016,12,07,14,32,1.80
2016,12,07,14,33,1.80
2016,12,07,14,34,1.80
2016,12,07,14,36,1.80
2016,12,07,14,37,1.80
2016,12,07,14,38,1.80
2016,12,07,14,39,1.80
2016,12,07,14,40,1.80
2016,12,07,14,41,1.80
2016,12,07,14,42,1.80
2016,12,07,14,43,1.80
2016,12,07,14,44,1.70
2016,12,07,14,45,1.70
2016,12,07,14,46,1.70
2016,12,07,14,47,1.80
2016,12,07,14,48,1.80
2016,12,07,14,49,1.80
2016,12,07,14,50,1.80
2016,12,07,14,51,1.80
2016,12,07,14,52,1.70
2016,12,07,14,53,1.70
2016,12,07,14,54,1.70
2016,12,07,14,55,1.70
2016,12,07,14,56,1.70
2016,12,07,14,57,1.70
2016,12,07,14,58,1.70
2016,12,07,14,59,1.70
2016,12,07,15,00,1.80
2016,12,07,15,01,1.70
2016,12,07,15,02,1.70
2016,12,07,15,03,1.70
2016,12,07,15,04,1.80
2016,12,07,15,05,1.80
2016,12,07,15,06,1.80
2016,12,07,15,07,1.80
2016,12,07,15,08,1.80
2016,12,07,15,09,1.80
2016,12,07,15,10,1.80
2016,12,07,15,11,1.80
2016,12,07,15,12,1.80
2016,12,07,15,13,1.80
2016,12,07,15,14,1.80
2016,12,07,15,15,1.80
2016,12,07,15,16,1.80
2016,12,07,15,17,1.80
2016,12,07,15,18,1.80
2016,12,07,15,19,1.80
2016,12,07,15,20,1.80
2016,12,07,15,21,1.80
2016,12,07,15,22,1.80
2016,12,07,15,23,1.80
2016,12,07,15,24,1.80
2016,12,07,15,25,1.80
2016,12,07,15,26,1.80
2016,12,07,15,27,1.80
2016,12,07,15,28,1.80
2016,12,07,15,29,1.80
2016,12,07,15,31,1.80
2016,12,07,15,32,1.80
2016,12,07,15,33,1.80
2016,12,07,15,34,1.80
2016,12,07,15,36,1.80
2016,12,07,15,37,1.80
2016,12,07,15,38,1.80
2016,12,07,15,39,1.80
2016,12,07,15,41,1.80
2016,12,07,15,42,1.70
2016,12,07,15,43,1.70
2016,12,07,15,44,1.70
2016,12,07,15,46,1.70
2016,12,07,15,47,1.70
2016,12,07,15,48,1.70
2016,12,07,15,49,1.70
2016,12,07,15,51,1.70
2016,12,07,15,52,1.70
2016,12,07,15,53,1.70
2016,12,07,15,54,1.70
2016,12,07,15,56,1.70
2016,12,07,15,57,1.70
2016,12,07,15,58,1.60
2016,12,07,15,59,1.60
2016,12,07,16,01,1.60
2016,12,07,16,02,1.60
2016,12,07,16,03,1.60
2016,12,07,16,04,1.60
2016,12,07,16,06,1.60
2016,12,07,16,07,1.60
2016,12,07,16,08,1.60
2016,12,07,16,09,1.60
2016,12,07,16,11,1.60
2016,12,07,16,12,1.60
2016,12,07,16,13,1.60
2016,12,07,16,14,1.60
2016,12,07,16,16,1.60
2016,12,07,16,17,1.60
2016,12,07,16,18,1.60
2016,12,07,16,19,1.50
2016,12,07,16,21,1.60
2016,12,07,16,22,1.50
2016,12,07,16,23,1.50
2016,12,07,16,24,1.50
2016,12,07,16,26,1.50
2016,12,07,16,27,1.50
2016,12,07,16,34,1.50
2016,12,07,16,36,1.50
2016,12,07,16,37,1.50
2016,12,07,16,38,1.50
2016,12,07,16,39,1.50
2016,12,07,16,41,1.50
2016,12,07,16,42,1.50
2016,12,07,16,43,1.50
2016,12,07,16,44,1.50
2016,12,07,16,46,1.50
2016,12,07,16,47,1.50
2016,12,07,16,48,1.40
2016,12,07,16,49,1.40
2016,12,07,16,51,1.40
2016,12,07,16,52,1.40
2016,12,07,16,53,1.40
2016,12,07,16,54,1.40
2016,12,07,16,56,1.40
2016,12,07,16,57,1.40
2016,12,07,16,58,1.40
2016,12,07,16,59,1.40
2016,12,07,17,01,1.30
2016,12,07,17,02,1.30
2016,12,07,17,03,1.30
2016,12,07,17,04,1.30
2016,12,07,17,06,1.30
2016,12,07,17,07,1.30
2016,12,07,17,08,1.30
2016,12,07,17,09,1.40
2016,12,07,17,11,1.40
2016,12,07,17,12,1.40
2016,12,07,17,13,1.40
2016,12,07,17,14,1.30
2016,12,07,17,16,1.30
2016,12,07,17,17,1.30
2016,12,07,17,18,1.30
2016,12,07,17,19,1.30
2016,12,07,17,21,1.30
2016,12,07,17,22,1.30
2016,12,07,17,23,1.30
2016,12,07,17,24,1.30
2016,12,07,17,25,1.40
2016,12,07,17,26,1.40
2016,12,07,17,27,1.30
2016,12,07,17,28,1.30
2016,12,07,17,29,1.30
2016,12,07,17,30,1.30
2016,12,07,17,31,1.30
2016,12,07,17,32,1.30
2016,12,07,17,33,1.30
2016,12,07,17,34,1.30
2016,12,07,17,36,1.30
2016,12,07,17,37,1.30
2016,12,07,17,38,1.30
2016,12,07,17,39,1.30
2016,12,07,17,40,1.30
2016,12,07,17,41,1.30
2016,12,07,17,42,1.30
2016,12,07,17,43,1.30
2016,12,07,17,44,1.30
2016,12,07,17,45,1.30
2016,12,07,17,46,1.30
2016,12,07,17,47,1.30
2016,12,07,17,48,1.30
2016,12,07,17,49,1.30
2016,12,07,17,50,1.30
2016,12,07,17,51,1.30
2016,12,07,17,52,1.30
2016,12,07,17,53,1.30
2016,12,07,17,54,1.30
2016,12,07,17,55,1.30
2016,12,07,17,56,1.30
2016,12,07,17,57,1.30
2016,12,07,17,58,1.30
2016,12,07,17,59,1.30
2016,12,07,18,00,1.30
2016,12,07,18,01,1.30
2016,12,07,18,02,1.30
2016,12,07,18,03,1.30
2016,12,07,18,04,1.30
2016,12,07,18,05,1.30
2016,12,07,18,06,1.30
2016,12,07,18,07,1.30
2016,12,07,18,08,1.30
2016,12,07,18,09,1.30
2016,12,07,18,10,1.30
2016,12,07,18,11,1.30
2016,12,07,18,12,1.30
2016,12,07,18,13,1.30
2016,12,07,18,14,1.30
2016,12,07,18,15,1.20
2016,12,07,18,16,1.20
2016,12,07,18,17,1.20
2016,12,07,18,18,1.20
2016,12,07,18,19,1.20
2016,12,07,18,20,1.20
2016,12,07,18,21,1.20
2016,12,07,18,22,1.20
2016,12,07,18,23,1.20
2016,12,07,18,24,1.20
2016,12,07,18,25,1.20
2016,12,07,18,26,1.20
2016,12,07,18,27,1.20
2016,12,07,18,28,1.20
2016,12,07,18,29,1.20
2016,12,07,18,30,1.20
2016,12,07,18,31,1.20
2016,12,07,18,32,1.20
2016,12,07,18,33,1.20
2016,12,07,18,34,1.20
2016,12,07,18,35,1.30
2016,12,07,18,36,1.30
2016,12,07,18,37,1.30
2016,12,07,18,38,1.30
2016,12,07,18,39,1.30
2016,12,07,18,40,1.30
2016,12,07,18,41,1.30
2016,12,07,18,42,1.30
2016,12,07,18,43,1.30
2016,12,07,18,44,1.30
2016,12,07,18,45,1.20
2016,12,07,18,46,1.20
2016,12,07,18,48,1.20
2016,12,07,18,49,1.20
2016,12,07,18,51,1.20
2016,12,07,18,52,1.20
2016,12,07,18,53,1.20
2016,12,07,18,54,1.20
2016,12,07,18,56,1.20
2016,12,07,18,57,1.20
2016,12,07,18,58,1.20
2016,12,07,18,59,1.20
2016,12,07,19,01,1.20
2016,12,07,19,02,1.20
2016,12,07,19,03,1.20
2016,12,07,19,04,1.20
2016,12,07,19,06,1.20
2016,12,07,19,07,1.20
2016,12,07,19,08,1.20
2016,12,07,19,09,1.10
2016,12,07,19,11,1.10
2016,12,07,19,12,1.10
2016,12,07,19,13,1.10
2016,12,07,19,14,1.20
2016,12,07,19,16,1.10
2016,12,07,19,17,1.10
2016,12,07,19,18,1.10
2016,12,07,19,19,1.20
2016,12,07,19,21,1.20
2016,12,07,19,22,1.30
2016,12,07,19,23,1.30
2016,12,07,19,24,1.30
2016,12,07,19,26,1.40
2016,12,07,19,27,1.40
2016,12,07,19,28,1.40
2016,12,07,19,29,1.40
2016,12,07,19,31,1.40
2016,12,07,19,32,1.30
2016,12,07,19,33,1.30
2016,12,07,19,34,1.30
2016,12,07,19,36,1.30
2016,12,07,19,37,1.30
2016,12,07,19,38,1.30
2016,12,07,19,39,1.30
2016,12,07,19,41,1.30
2016,12,07,19,42,1.20
2016,12,07,19,43,1.20
2016,12,07,19,44,1.20
2016,12,07,19,46,1.20
2016,12,07,19,47,1.10
2016,12,07,19,48,1.10
2016,12,07,19,49,1.10
2016,12,07,19,51,1.20
2016,12,07,19,52,1.20
2016,12,07,19,53,1.20
2016,12,07,19,54,1.20
2016,12,07,19,56,1.20
2016,12,07,19,57,1.20
2016,12,07,19,58,1.20
2016,12,07,19,59,1.20
2016,12,07,20,01,1.10
2016,12,07,20,02,1.10
2016,12,07,20,03,1.10
2016,12,07,20,04,1.10
2016,12,07,20,06,1.10
2016,12,07,20,07,1.10
2016,12,07,20,08,1.10
2016,12,07,20,09,1.00
2016,12,07,20,10,1.00
2016,12,07,20,11,1.00
2016,12,07,20,12,1.00
2016,12,07,20,13,1.00
2016,12,07,20,14,1.00
2016,12,07,20,15,1.00
2016,12,07,20,16,1.00
2016,12,07,20,17,1.00
2016,12,07,20,18,1.00
2016,12,07,20,19,1.00
2016,12,07,20,20,1.00
2016,12,07,20,21,1.10
2016,12,07,20,22,1.10
2016,12,07,20,23,1.10
2016,12,07,20,24,1.10
2016,12,07,20,25,1.00
2016,12,07,20,26,1.00
2016,12,07,20,27,1.10
2016,12,07,20,28,1.10
2016,12,07,20,29,1.00
2016,12,07,20,30,1.00
2016,12,07,20,31,1.00
2016,12,07,20,32,1.00
2016,12,07,20,33,1.00
2016,12,07,20,34,1.00
2016,12,07,20,35,1.00
2016,12,07,20,36,1.00
2016,12,07,20,37,1.00
2016,12,07,20,38,1.00
2016,12,07,20,39,1.00
2016,12,07,20,40,1.00
2016,12,07,20,41,1.00
2016,12,07,20,42,1.00
2016,12,07,20,43,1.00
2016,12,07,20,44,1.00
2016,12,07,20,45,1.10
2016,12,07,20,46,1.00
2016,12,07,20,47,1.10
2016,12,07,20,48,1.10
2016,12,07,20,49,1.10
2016,12,07,20,50,1.10
2016,12,07,20,51,1.10
2016,12,07,20,52,1.10
2016,12,07,20,53,1.10
2016,12,07,20,54,1.20
2016,12,07,20,55,1.20
2016,12,07,20,56,1.30
2016,12,07,20,57,1.30
2016,12,07,20,58,1.30
2016,12,07,20,59,1.30
2016,12,07,21,00,1.40
2016,12,07,21,01,1.40
2016,12,07,21,02,1.50
2016,12,07,21,03,1.50
2016,12,07,21,04,1.50
2016,12,07,21,05,1.50
2016,12,07,21,06,1.50
2016,12,07,21,07,1.40
2016,12,07,21,08,1.40
2016,12,07,21,09,1.40
2016,12,07,21,10,1.40
2016,12,07,21,11,1.40
2016,12,07,21,12,1.40
2016,12,07,21,13,1.40
2016,12,07,21,14,1.30
2016,12,07,21,15,1.30
2016,12,07,21,16,1.30
2016,12,07,21,17,1.30
2016,12,07,21,18,1.30
2016,12,07,21,19,1.30
2016,12,07,21,20,1.30
2016,12,07,21,21,1.30
2016,12,07,21,22,1.30
2016,12,07,21,23,1.30
2016,12,07,21,24,1.30
2016,12,07,21,25,1.30
2016,12,07,21,27,1.30
2016,12,07,21,28,1.30
2016,12,07,21,29,1.30
2016,12,07,21,31,1.30
2016,12,07,21,32,1.20
2016,12,07,21,33,1.20
2016,12,07,21,34,1.30
2016,12,07,21,36,1.30
2016,12,07,21,37,1.30
2016,12,07,21,38,1.20
2016,12,07,21,39,1.20
2016,12,07,21,41,1.20
2016,12,07,21,42,1.20
2016,12,07,21,43,1.20
2016,12,07,21,44,1.20
2016,12,07,21,46,1.20
2016,12,07,21,47,1.20
2016,12,07,21,48,1.20
2016,12,07,21,49,1.20
2016,12,07,21,51,1.20
2016,12,07,21,52,1.20
2016,12,07,21,53,1.20
2016,12,07,21,54,1.20
2016,12,07,21,56,1.20
2016,12,07,21,57,1.20
2016,12,07,21,58,1.30
2016,12,07,21,59,1.30
2016,12,07,22,01,1.30
2016,12,07,22,02,1.20
2016,12,07,22,03,1.20
2016,12,07,22,04,1.20
2016,12,07,22,06,1.20
2016,12,07,22,07,1.20
2016,12,07,22,08,1.20
2016,12,07,22,09,1.10
2016,12,07,22,11,1.20
2016,12,07,22,12,1.20
2016,12,07,22,13,1.20
2016,12,07,22,14,1.20
2016,12,07,22,16,1.20
2016,12,07,22,17,1.20
2016,12,07,22,18,1.20
2016,12,07,22,19,1.30
2016,12,07,22,21,1.30
2016,12,07,22,22,1.30
2016,12,07,22,23,1.30
2016,12,07,22,24,1.30
2016,12,07,22,26,1.20
2016,12,07,22,27,1.20
2016,12,07,22,28,1.20
2016,12,07,22,29,1.20
2016,12,07,22,31,1.20
2016,12,07,22,32,1.20
2016,12,07,22,33,1.20
2016,12,07,22,34,1.20
2016,12,07,22,36,1.10
2016,12,07,22,37,1.10
2016,12,07,22,38,1.10
2016,12,07,22,39,1.10
2016,12,07,22,41,1.10
2016,12,07,22,42,1.10
2016,12,07,22,43,1.10
2016,12,07,22,44,1.20
2016,12,07,22,45,1.20
2016,12,07,22,46,1.20
2016,12,07,22,47,1.20
2016,12,07,22,48,1.20
2016,12,07,22,49,1.20
2016,12,07,22,50,1.20
2016,12,07,22,51,1.20
2016,12,07,22,52,1.20
2016,12,07,22,53,1.20
2016,12,07,22,54,1.20
2016,12,07,22,55,1.20
2016,12,07,22,56,1.20
2016,12,07,22,57,1.20
2016,12,07,22,58,1.20
2016,12,07,22,59,1.20
2016,12,07,23,00,1.20
2016,12,07,23,01,1.20
2016,12,07,23,02,1.20
2016,12,07,23,03,1.20
2016,12,07,23,04,1.20
2016,12,07,23,06,1.20
2016,12,07,23,07,1.10
2016,12,07,23,08,1.10
2016,12,07,23,09,1.20
2016,12,07,23,10,1.20
2016,12,07,23,11,1.20
2016,12,07,23,12,1.20
2016,12,07,23,13,1.30
2016,12,07,23,14,1.20
2016,12,07,23,15,1.20
2016,12,07,23,16,1.20
2016,12,07,23,17,1.20
2016,12,07,23,18,1.20
2016,12,07,23,19,1.20